Airfield :
LOGIN :

Register | Disclaimer

   EN    FR    IT 

 










Legend :    VFR   Marginal VFR   IFR   Intensive IFR   Very Intensive IFR
Visi :
Ceiling :
>= 8 km
>= 3000ft
5 to 8 km
1000 to 3000 ft
1500m to 5 km
500 to 1000 ft
800 to 1500m
200 to 500 ft
< 800m
< 200 ft
Symbols :   Thunderstorms  Fog  Heavy snow  Heavy precipitations  Wind > 20 kt
SIGMETs :     Misc.  Thunderstorms  Icing  Turbulence  Mountain Waves  Volcanic Ashes







- Airport Elevation : 479 ft
- IATA code : DOL
- Download approach charts


LFRG - Deauville

CURRENT METAR :
  • 162100Z AUTO 16005KT CAVOK 08/03 Q1022 NOSIG

EXPIRED METARs :
  • 162030Z AUTO 16005KT CAVOK 09/04 Q1023 NOSIG
  • 162000Z AUTO 17005KT CAVOK 10/04 Q1023 NOSIG
  • 161930Z AUTO 17006KT CAVOK 10/03 Q1023 NOSIG
  • 161900Z AUTO 18004KT 140V200 CAVOK 10/03 Q1023 NOSIG
  • 161830Z AUTO 16005KT CAVOK 09/03 Q1023 NOSIG

TAF TAF LFRG
Valid from the 16 at 15:00 until the 17 at 00:00 UTC


161400Z 1615/1624 18008KT CAVOK
ATIS : +33 2 31 65 65 36
No reported NOTAMs for that airfield.



MET'MAP, your aeronautical weather chart ! - Copyright ORBIFLY December 2007 - Disclaimer

ORBIFLY MET'MAP TEAM :

Programming & Development : Alexandra Zaïnal
Concept & Development : Baudouin d'Aumeries
Co-Development & Prog : Marc-Olivier Méhu
Technical & hardware support : Manuel Goepfert

Contact : metmap@orbifly.com




SOURCES & CREDITS :

   NOAA